When you browse on this site, cookies collect data to enhance your experience and personalize the content and advertising you see.
Visit our Privacy Policy to learn more. By continuing to use the site, you agree to this use of cookies and data.
  • In Hungary
  • List of Countries
  • For 7 days
  • Water Temperature
  • Satellite Maps
  • Weather Map
  • News
  • Weather Widgets
  • user-avatar
    Login

    Hourly Weather Alatri

    Today, 11 December, Tuesday

    Time Temperature Precipitation Wind Pressure Humidity
    00:00 +5°C° 0 mm 2 mps 723 mmHg 70%
    01:00 +5°C° 0 mm 2 mps 723 mmHg 70%
    02:00 +5°C° 0 mm 2 mps 723 mmHg 71%
    03:00 +4°C° 0 mm 2 mps 723 mmHg 71%
    04:00 +5°C° 0 mm 1 mps 723 mmHg 71%
    05:00 +5°C° 0 mm 1 mps 723 mmHg 71%
    06:00 +5°C° 0 mm 1 mps 723 mmHg 70%
    07:00 +5°C° 0 mm 1 mps 724 mmHg 69%
    08:00 +6°C° 0 mm 1 mps 724 mmHg 63%
    09:00 +8°C° 0 mm 1 mps 724 mmHg 57%
    10:00 +9°C° 0 mm 1 mps 724 mmHg 51%
    11:00 +10°C° 0.1 mm 1 mps 725 mmHg 49%
    12:00 +10°C° 0.1 mm 1 mps 725 mmHg 48%
    13:00 +11°C° 0.1 mm 1 mps 725 mmHg 46%
    14:00 +10°C° 0.1 mm 1 mps 725 mmHg 51%
    15:00 +9°C° 0.1 mm 1 mps 725 mmHg 55%
    16:00 +8°C° 0.1 mm 1 mps 725 mmHg 59%
    17:00 +7°C° 0 mm 1 mps 725 mmHg 62%
    18:00 +6°C° 0 mm 1 mps 725 mmHg 65%
    19:00 +5°C° 0 mm 1 mps 725 mmHg 68%
    20:00 +5°C° 0 mm 1 mps 725 mmHg 69%
    21:00 +5°C° 0 mm 1 mps 726 mmHg 69%
    22:00 +4°C° 0 mm 1 mps 726 mmHg 69%
    23:00 +3°C° 0 mm 2 mps 726 mmHg 68%

    Tomorrow, 12 December, Wednesday

    Time Temperature Precipitation Wind Pressure Humidity
    00:00 +3°C° 0 mm 2 mps 726 mmHg 66%
    01:00 +3°C° 0 mm 2 mps 726 mmHg 64%
    02:00 +3°C° 0 mm 2 mps 726 mmHg 63%
    03:00 +3°C° 0 mm 2 mps 726 mmHg 61%
    04:00 +4°C° 0 mm 1 mps 725 mmHg 59%
    05:00 +3°C° 0 mm 2 mps 725 mmHg 58%
    06:00 +3°C° 0 mm 2 mps 726 mmHg 57%
    07:00 +2°C° 0 mm 2 mps 726 mmHg 55%
    08:00 +4°C° 0 mm 2 mps 726 mmHg 51%
    09:00 +5°C° 0 mm 2 mps 726 mmHg 47%
    10:00 +8°C° 0 mm 1 mps 726 mmHg 43%
    11:00 +8°C° 0 mm 2 mps 726 mmHg 41%
    12:00 +8°C° 0 mm 2 mps 726 mmHg 38%
    13:00 +9°C° 0 mm 2 mps 726 mmHg 36%
    14:00 +8°C° 0 mm 2 mps 725 mmHg 41%
    15:00 +7°C° 0 mm 2 mps 725 mmHg 46%
    16:00 +8°C° 0 mm 1 mps 724 mmHg 50%
    17:00 +6°C° 0 mm 2 mps 724 mmHg 51%
    18:00 +6°C° 0 mm 2 mps 724 mmHg 52%
    19:00 +5°C° 0 mm 2 mps 724 mmHg 53%
    20:00 +5°C° 0.1 mm 2 mps 724 mmHg 54%
    21:00 +5°C° 0.1 mm 2 mps 724 mmHg 55%
    22:00 +5°C° 0.1 mm 2 mps 724 mmHg 56%
    23:00 +5°C° 0.1 mm 2 mps 723 mmHg 58%

    Day after tomorrow, 13 December, Thursday

    Time Temperature Precipitation Wind Pressure Humidity
    00:00 +5°C° 0.1 mm 2 mps 723 mmHg 60%
    01:00 +5°C° 0.1 mm 2 mps 723 mmHg 62%
    02:00 +5°C° 0.2 mm 2 mps 722 mmHg 64%
    03:00 +5°C° 0.2 mm 2 mps 722 mmHg 65%
    04:00 +4°C° 0.2 mm 2 mps 722 mmHg 67%
    05:00 +4°C° 0.3 mm 2 mps 721 mmHg 69%
    06:00 +4°C° 0.3 mm 2 mps 721 mmHg 70%
    07:00 +4°C° 0.3 mm 2 mps 721 mmHg 72%
    08:00 +5°C° 0.2 mm 2 mps 721 mmHg 72%
    09:00 +5°C° 0.2 mm 2 mps 721 mmHg 72%
    10:00 +5°C° 0.2 mm 2 mps 721 mmHg 72%
    11:00 +6°C° 0.1 mm 2 mps 720 mmHg 72%
    12:00 +6°C° 0.1 mm 2 mps 720 mmHg 71%
    13:00 +7°C° 0.1 mm 2 mps 720 mmHg 71%
    14:00 +7°C° 0 mm 2 mps 720 mmHg 74%
    15:00 +8°C° 0 mm 1 mps 720 mmHg 77%
    16:00 +8°C° 0 mm 1 mps 719 mmHg 80%
    17:00 +7°C° 0 mm 1 mps 719 mmHg 81%
    18:00 +7°C° 0 mm 1 mps 720 mmHg 82%
    19:00 +7°C° 0 mm 1 mps 720 mmHg 83%
    20:00 +7°C° 0.1 mm 1 mps 720 mmHg 84%
    21:00 +7°C° 0.1 mm 1 mps 720 mmHg 84%
    22:00 +7°C° 0.1 mm 1 mps 720 mmHg 85%
    23:00 +7°C° 0.1 mm 1 mps 720 mmHg 86%

    14 December, Friday

    Time Temperature Precipitation Wind Pressure Humidity
    00:00 +7°C° 0.1 mm 1 mps 720 mmHg 87%
    01:00 +7°C° 0.1 mm 1 mps 720 mmHg 88%
    02:00 +7°C° 0.1 mm 1 mps 719 mmHg 88%
    03:00 +7°C° 0.1 mm 1 mps 719 mmHg 89%
    04:00 +7°C° 0.1 mm 1 mps 719 mmHg 89%
    05:00 +7°C° 0.1 mm 1 mps 719 mmHg 89%
    06:00 +7°C° 0.1 mm 1 mps 719 mmHg 89%
    07:00 +6°C° 0.1 mm 2 mps 719 mmHg 88%
    08:00 +7°C° 0.1 mm 2 mps 719 mmHg 85%
    09:00 +8°C° 0.1 mm 2 mps 719 mmHg 83%
    10:00 +9°C° 0.1 mm 2 mps 720 mmHg 80%
    11:00 +9°C° 0.1 mm 2 mps 720 mmHg 78%
    12:00 +10°C° 0.1 mm 2 mps 719 mmHg 76%
    13:00 +10°C° 0.1 mm 2 mps 719 mmHg 73%
    14:00 +10°C° 0.2 mm 2 mps 719 mmHg 76%
    15:00 +9°C° 0.2 mm 2 mps 719 mmHg 79%
    16:00 +9°C° 0.2 mm 2 mps 719 mmHg 82%
    17:00 +8°C° 0.6 mm 2 mps 719 mmHg 84%
    18:00 +8°C° 0.6 mm 2 mps 720 mmHg 85%
    19:00 +7°C° 0.6 mm 2 mps 720 mmHg 87%
    20:00 +7°C° 0.6 mm 2 mps 720 mmHg 87%
    21:00 +7°C° 0.6 mm 2 mps 720 mmHg 86%
    22:00 +7°C° 0.6 mm 2 mps 720 mmHg 86%
    23:00 +7°C° 0.6 mm 2 mps 720 mmHg 86%

    15 December, Saturday

    Time Temperature Precipitation Wind Pressure Humidity
    00:00 +7°C° 0.6 mm 2 mps 720 mmHg 86%
    01:00 +7°C° 0.6 mm 2 mps 720 mmHg 87%
    02:00 +7°C° 0.4 mm 2 mps 720 mmHg 87%
    03:00 +7°C° 0.4 mm 2 mps 720 mmHg 87%
    04:00 +6°C° 0.4 mm 2 mps 721 mmHg 87%
    05:00 +6°C° 0.4 mm 2 mps 721 mmHg 86%
    06:00 +6°C° 0.4 mm 2 mps 721 mmHg 86%
    07:00 +6°C° 0.4 mm 2 mps 721 mmHg 85%
    08:00 +6°C° 0.2 mm 2 mps 722 mmHg 83%
    09:00 +6°C° 0.2 mm 2 mps 722 mmHg 80%
    10:00 +6°C° 0.2 mm 2 mps 723 mmHg 77%
    11:00 +7°C° 0 mm 2 mps 723 mmHg 73%
    12:00 +7°C° 0 mm 2 mps 723 mmHg 69%
    13:00 +8°C° 0 mm 2 mps 723 mmHg 65%
    14:00 +7°C° 0 mm 2 mps 724 mmHg 66%
    15:00 +7°C° 0 mm 2 mps 724 mmHg 68%
    16:00 +6°C° 0 mm 2 mps 724 mmHg 69%
    17:00 +5°C° 0 mm 2 mps 725 mmHg 71%
    18:00 +4°C° 0 mm 2 mps 725 mmHg 72%
    19:00 +2°C° 0 mm 2 mps 725 mmHg 73%
    20:00 +2°C° 0 mm 2 mps 726 mmHg 73%
    21:00 +2°C° 0 mm 2 mps 726 mmHg 72%
    22:00 +1°C° 0 mm 2 mps 726 mmHg 71%
    23:00 +1°C° 0 mm 2 mps 727 mmHg 71%

    16 December, Sunday

    Time Temperature Precipitation Wind Pressure Humidity
    00:00 +1°C° 0 mm 2 mps 727 mmHg 70%
    01:00 +1°C° 0 mm 2 mps 727 mmHg 70%
    02:00 +1°C° 0 mm 2 mps 727 mmHg 70%
    03:00 +1°C° 0 mm 2 mps 727 mmHg 69%
    04:00 +1°C° 0 mm 2 mps 727 mmHg 69%
    05:00 +1°C° 0 mm 2 mps 727 mmHg 68%
    06:00 +1°C° 0 mm 2 mps 728 mmHg 67%
    07:00 +1°C° 0 mm 2 mps 728 mmHg 66%
    08:00 +4°C° 0 mm 1 mps 728 mmHg 62%
    09:00 +5°C° 0 mm 1 mps 729 mmHg 58%
    10:00 +7°C° 0 mm 1 mps 729 mmHg 55%
    11:00 +8°C° 0 mm 1 mps 729 mmHg 52%
    12:00 +9°C° 0 mm 1 mps 729 mmHg 50%
    13:00 +10°C° 0 mm 1 mps 729 mmHg 48%
    14:00 +9°C° 0 mm 1 mps 729 mmHg 51%
    15:00 +9°C° 0 mm 1 mps 729 mmHg 55%
    16:00 +8°C° 0 mm 1 mps 729 mmHg 59%
    17:00 +7°C° 0 mm 1 mps 729 mmHg 59%
    18:00 +6°C° 0 mm 1 mps 729 mmHg 59%
    19:00 +5°C° 0 mm 1 mps 729 mmHg 58%
    20:00 +5°C° 0 mm 1 mps 729 mmHg 57%
    21:00 +5°C° 0 mm 1 mps 729 mmHg 56%
    22:00 +5°C° 0 mm 1 mps 729 mmHg 54%
    23:00 +5°C° 0 mm 1 mps 729 mmHg 54%
    Show more